This demonstration page uses our WeatherBlox Daily Observations layout. Learn more.

Left ArrowRight Arrow

36.19886, -115.1175

Hourly Observations for November 2, 2015

Temp ( °F °C ) Dew Point ( °F °C ) Humidity (%) Winds ( mph kmh ) Pressure ( in mb ) Visibility ( mi km ) Precip ( " mm )
12:53 am 00:53 Clear 58 14.4 38 3.3 48 48 Calm 29.85 1011 10 16 0.00 0.00
1:53 am 01:53 Clear 57 13.9 37 2.8 47 47 NNE 3 6 29.84 1010 10 16 0.00 0.00
2:53 am 02:53 Clear 59 15 36 2.2 42 42 N 5 7 29.82 1010 10 16 0.00 0.00
3:53 am 03:53 Clear 56 13.3 36 2.2 47 47 NW 8 13 29.81 1009 10 16 0.00 0.00
4:53 am 04:53 Clear 56 13.3 36 2.2 47 47 NW 6 9 29.81 1010 10 16 0.00 0.00
5:53 am 05:53 Clear 56 13.3 35 1.7 46 46 N 3 6 29.81 1009 10 16 0.00 0.00
6:53 am 06:53 Sunny 57 13.9 36 2.2 45 45 NE 5 7 29.81 1010 10 16 0.00 0.00
7:53 am 07:53 Sunny 63 17.2 36 2.2 37 37 E 6 9 29.80 1009 10 16 0.00 0.00
8:53 am 08:53 Sunny 71 21.7 33 0.6 25 25 ESE 10 17 29.77 1008 10 16 0.00 0.00
9:53 am 09:53 Sunny 79 26.1 24 -4.4 13 13 S 20 31 29.72 1007 10 16 0.00 0.00
10:53 am 10:53 Sunny 82 27.8 22 -5.6 11 11 SW 22 35 29.70 1006 10 16 0.00 0.00
11:53 am 11:53 Sunny 84 28.9 23 -5 10 10 SW 18 30 29.65 1004 10 16 0.00 0.00
12:53 pm 12:53 Sunny 84 28.9 23 -5 10 10 SW 20 31 29.62 1003 10 16 0.00 0.00
1:53 pm 13:53 Sunny 84 28.9 22 -5.6 10 10 SW 20 31 29.58 1002 10 16 0.00 0.00
2:53 pm 14:53 Sunny 84 28.9 24 -4.4 11 11 SW 24 39 29.56 1001 10 16 0.00 0.00
3:53 pm 15:53 Sunny 81 27.2 26 -3.3 13 13 SW 26 43 29.56 1001 10 16 0.00 0.00
4:53 pm 16:53 Clear 79 26.1 24 -4.4 13 13 SW 22 35 29.54 1001 10 16 0.00 0.00
5:53 pm 17:53 Clear 77 25 25 -3.9 14 14 SW 16 26 29.54 1000 10 16 0.00 0.00
6:53 pm 18:53 Clear 74 23.3 29 -1.7 19 19 SW 12 19 29.55 1001 10 16 0.00 0.00
7:53 pm 19:53 Mostly Clear 71 21.7 36 2.2 28 28 SW 18 30 29.56 1001 10 16 0.00 0.00
8:53 pm 20:53 Clear 68 20 38 3.3 33 33 SW 16 26 29.56 1001 10 16 0.00 0.00
9:53 pm 21:53 Clear 61 16.1 39 3.9 44 44 WSW 22 35 29.60 1002 10 16 0.00 0.00
10:53 pm 22:53 Cloudy 61 16.1 39 3.9 44 44 SW 17 28 29.61 1003 10 16 0.00 0.00
11:53 pm 23:53 Partly Cloudy 59 15 36 2.2 42 42 SSW 22 35 29.62 1003 10 16 0.00 0.00

Powered by AerisWeather